UAE175 OMDB-ULLI

Flight info

Callsign UAE175
Flight time 7h 32m
Altitude 33000
Route ANVIX L223 TARDI N629 IVAKU G216 KC Z302 NH G326 ZB G325 REGET J139 LAKRA/N0492F340 M881 LAJAK L509 TAPIS M875 AMDAR/K0907F340 M875 MILSO M161 DENUD T784 TIRET/K0895F360 T784 ROKUR P164 PINOK N50 GENPA GENPA1V
Aircraft B77W/H-SDE1E2E3FGHIJ2J3J4J5M1RWXY/LB1D1

Departure

Time 2026-05-06 06:36
Airport Dubai International Airport (OMDB)

Arrival

Time 2026-05-06 14:08
Airport Pulkovo Airport (ULLI)
Time Latitude Longitude Altitude Speed Heading
2026-05-06 05:30 25.25326 55.35500 26 ft 0 kts 211°
2026-05-06 06:21 25.25337 55.35508 26 ft 4 kts 211°
2026-05-06 06:21 25.25360 55.35523 28 ft 4 kts 211°
2026-05-06 06:22 25.25379 55.35536 31 ft 4 kts 209°
2026-05-06 06:22 25.25403 55.35545 31 ft 4 kts 173°
2026-05-06 06:22 25.25424 55.35534 31 ft 4 kts 126°
2026-05-06 06:22 25.25438 55.35510 30 ft 4 kts 122°
2026-05-06 06:23 25.25449 55.35491 31 ft 0 kts 122°
2026-05-06 06:27 25.25446 55.35496 26 ft 2 kts 122°
2026-05-06 06:27 25.25437 55.35512 31 ft 3 kts 122°
2026-05-06 06:27 25.25421 55.35541 30 ft 6 kts 122°
2026-05-06 06:27 25.25388 55.35600 29 ft 12 kts 122°
2026-05-06 06:28 25.25333 55.35697 29 ft 16 kts 122°
2026-05-06 06:28 25.25273 55.35804 31 ft 16 kts 121°
2026-05-06 06:28 25.25213 55.35912 29 ft 16 kts 121°
2026-05-06 06:28 25.25153 55.36020 30 ft 16 kts 122°
2026-05-06 06:29 25.25092 55.36127 30 ft 16 kts 122°
2026-05-06 06:29 25.25031 55.36235 29 ft 16 kts 121°
2026-05-06 06:29 25.24970 55.36342 30 ft 16 kts 122°
2026-05-06 06:29 25.24909 55.36449 30 ft 16 kts 122°
2026-05-06 06:30 25.24850 55.36557 29 ft 16 kts 121°
2026-05-06 06:30 25.24799 55.36669 29 ft 16 kts 110°
2026-05-06 06:30 25.24771 55.36791 28 ft 16 kts 102°
2026-05-06 06:30 25.24721 55.36904 30 ft 16 kts 122°
2026-05-06 06:31 25.24661 55.37012 32 ft 16 kts 122°
2026-05-06 06:31 25.24601 55.37120 29 ft 16 kts 121°
2026-05-06 06:31 25.24540 55.37227 30 ft 16 kts 122°
2026-05-06 06:31 25.24480 55.37334 29 ft 16 kts 122°
2026-05-06 06:32 25.24419 55.37442 29 ft 16 kts 122°
2026-05-06 06:32 25.24358 55.37549 28 ft 16 kts 122°
2026-05-06 06:32 25.24308 55.37639 29 ft 13 kts 122°
2026-05-06 06:32 25.24267 55.37713 29 ft 10 kts 115°
2026-05-06 06:33 25.24282 55.37783 30 ft 10 kts 44°
2026-05-06 06:33 25.24339 55.37828 26 ft 10 kts 34°
2026-05-06 06:33 25.24398 55.37872 28 ft 10 kts 34°
2026-05-06 06:33 25.24455 55.37915 29 ft 10 kts 34°
2026-05-06 06:34 25.24514 55.37959 29 ft 11 kts 34°
2026-05-06 06:34 25.24589 55.38016 28 ft 15 kts 34°
2026-05-06 06:34 25.24675 55.38078 29 ft 12 kts 31°
2026-05-06 06:34 25.24739 55.38103 31 ft 10 kts 353°
2026-05-06 06:35 25.24790 55.38053 30 ft 10 kts 304°
2026-05-06 06:35 25.24876 55.37901 30 ft 53 kts 301°
2026-05-06 06:35 25.25195 55.37322 32 ft 122 kts 302°
2026-05-06 06:35 25.25747 55.36331 32 ft 179 kts 300°
2026-05-06 06:36 25.26455 55.35051 321 ft 197 kts 301°
2026-05-06 06:36 25.27190 55.33781 968 ft 196 kts 300°
2026-05-06 06:36 25.27893 55.32480 1568 ft 200 kts 296°
2026-05-06 06:36 25.28609 55.31137 2019 ft 206 kts 297°
2026-05-06 06:37 25.29267 55.29727 2355 ft 206 kts 278°
2026-05-06 06:37 25.29089 55.28226 2665 ft 199 kts 242°
2026-05-06 06:37 25.28463 55.26849 2962 ft 202 kts 242°
2026-05-06 06:37 25.27846 55.25413 3246 ft 210 kts 243°
2026-05-06 06:38 25.27218 55.23947 3574 ft 212 kts 243°
2026-05-06 06:38 25.26591 55.22481 3882 ft 215 kts 244°
2026-05-06 06:38 25.25948 55.20974 4145 ft 223 kts 244°
2026-05-06 06:38 25.25262 55.19362 4265 ft 240 kts 244°
2026-05-06 06:39 25.24440 55.17727 4521 ft 248 kts 227°
2026-05-06 06:39 25.22978 55.16734 4764 ft 254 kts 189°
2026-05-06 06:39 25.21204 55.16713 5010 ft 261 kts 173°
2026-05-06 06:39 25.19408 55.17042 5357 ft 261 kts 154°
2026-05-06 06:40 25.17975 55.18238 5661 ft 266 kts 123°
2026-05-06 06:40 25.17087 55.20036 5943 ft 271 kts 115°
2026-05-06 06:40 25.16206 55.21891 6333 ft 280 kts 117°
2026-05-06 06:40 25.15285 55.23797 6921 ft 280 kts 116°
2026-05-06 06:41 25.14367 55.25700 7557 ft 281 kts 116°
2026-05-06 06:41 25.13447 55.27619 8126 ft 284 kts 117°
2026-05-06 06:41 25.12518 55.29554 8694 ft 287 kts 117°
2026-05-06 06:41 25.11576 55.31511 9245 ft 291 kts 117°
2026-05-06 06:42 25.10628 55.33491 9809 ft 293 kts 115°
2026-05-06 06:42 25.09762 55.35533 10324 ft 294 kts 112°
2026-05-06 06:42 25.08927 55.37605 10886 ft 297 kts 113°
2026-05-06 06:42 25.08079 55.39691 11437 ft 300 kts 113°
2026-05-06 06:43 25.07218 55.41796 12010 ft 302 kts 112°
2026-05-06 06:43 25.06379 55.43948 12430 ft 313 kts 112°
2026-05-06 06:43 25.05508 55.46233 12575 ft 333 kts 112°
2026-05-06 06:43 25.04584 55.48654 12724 ft 352 kts 112°
2026-05-06 06:44 25.03600 55.51216 12866 ft 372 kts 112°
2026-05-06 06:44 25.02570 55.53888 13181 ft 385 kts 112°
2026-05-06 06:44 25.01461 55.56608 13643 ft 393 kts 117°
2026-05-06 06:44 25.00084 55.59248 14096 ft 400 kts 121°
2026-05-06 06:45 24.98588 55.61850 14655 ft 403 kts 122°
2026-05-06 06:45 24.97101 55.64468 15285 ft 405 kts 121°
2026-05-06 06:45 24.95637 55.67132 15842 ft 408 kts 120°
2026-05-06 06:45 24.94170 55.69837 16336 ft 413 kts 121°
2026-05-06 06:46 24.92574 55.72494 16870 ft 418 kts 125°
2026-05-06 06:46 24.90837 55.75071 17430 ft 421 kts 127°
2026-05-06 06:46 24.89057 55.77651 17990 ft 424 kts 126°
2026-05-06 06:46 24.87279 55.80266 18425 ft 429 kts 126°
2026-05-06 06:47 24.85499 55.82934 18852 ft 434 kts 126°
2026-05-06 06:47 24.83713 55.85627 19354 ft 436 kts 126°
2026-05-06 06:47 24.81900 55.88329 19783 ft 441 kts 126°
2026-05-06 06:47 24.80059 55.91051 20176 ft 446 kts 127°
2026-05-06 06:48 24.78196 55.93789 20626 ft 449 kts 128°
2026-05-06 06:48 24.76087 55.96325 21037 ft 451 kts 137°
2026-05-06 06:48 24.73726 55.98628 21432 ft 456 kts 140°
2026-05-06 06:48 24.71329 56.00930 21879 ft 459 kts 139°
2026-05-06 06:49 24.68962 56.03303 22327 ft 462 kts 137°
2026-05-06 06:49 24.66639 56.05691 22756 ft 465 kts 137°
2026-05-06 06:49 24.64272 56.08129 23111 ft 469 kts 137°
2026-05-06 06:49 24.61883 56.10580 23522 ft 472 kts 137°
2026-05-06 06:50 24.59473 56.13047 23884 ft 475 kts 138°
2026-05-06 06:50 24.57080 56.15546 24299 ft 476 kts 135°
2026-05-06 06:50 24.54843 56.18257 24516 ft 482 kts 131°
2026-05-06 06:50 24.52663 56.21067 24826 ft 485 kts 131°
2026-05-06 06:51 24.50478 56.23898 25162 ft 487 kts 131°
2026-05-06 06:51 24.48276 56.26739 25491 ft 490 kts 131°
2026-05-06 06:51 24.46054 56.29589 25774 ft 493 kts 131°
2026-05-06 06:51 24.43812 56.32447 26099 ft 495 kts 131°
2026-05-06 06:52 24.41561 56.35307 26448 ft 496 kts 132°
2026-05-06 06:52 24.39299 56.38178 26736 ft 499 kts 132°
2026-05-06 06:52 24.37021 56.41068 27004 ft 502 kts 132°
2026-05-06 06:52 24.34731 56.43973 27271 ft 505 kts 132°
2026-05-06 06:53 24.32429 56.46892 27563 ft 507 kts 132°
2026-05-06 06:53 24.30123 56.49828 27838 ft 509 kts 131°
2026-05-06 06:53 24.27949 56.52911 28103 ft 512 kts 127°
2026-05-06 06:53 24.25860 56.56080 28355 ft 515 kts 127°
2026-05-06 06:54 24.23766 56.59280 28579 ft 518 kts 127°
2026-05-06 06:54 24.21661 56.62489 28815 ft 520 kts 127°
2026-05-06 06:54 24.19539 56.65708 29048 ft 522 kts 127°
2026-05-06 06:54 24.17404 56.68928 29283 ft 524 kts 128°
2026-05-06 06:55 24.15257 56.72157 29503 ft 526 kts 128°
2026-05-06 06:55 24.13099 56.75397 29746 ft 527 kts 128°
2026-05-06 06:55 24.10940 56.78637 30012 ft 527 kts 128°
2026-05-06 06:55 24.08781 56.81877 30290 ft 526 kts 128°
2026-05-06 06:56 24.06627 56.85110 30551 ft 526 kts 128°
2026-05-06 06:56 24.04474 56.88338 30838 ft 525 kts 128°
2026-05-06 06:56 24.02345 56.91520 31088 ft 525 kts 128°
2026-05-06 06:56 24.00183 56.94737 31316 ft 525 kts 128°
2026-05-06 06:57 23.98016 56.97955 31552 ft 525 kts 128°
2026-05-06 06:57 23.95850 57.01170 31789 ft 525 kts 129°
2026-05-06 06:57 23.93684 57.04388 32035 ft 525 kts 129°
2026-05-06 06:57 23.91522 57.07600 32260 ft 525 kts 129°
2026-05-06 06:58 23.89354 57.10817 32500 ft 525 kts 129°
2026-05-06 06:58 23.87189 57.14032 32701 ft 526 kts 129°
2026-05-06 06:58 23.85017 57.17261 32785 ft 528 kts 129°
2026-05-06 06:59 23.80666 57.23731 32887 ft 529 kts 129°
2026-05-06 06:59 23.76289 57.30232 32886 ft 533 kts 129°
2026-05-06 07:00 23.71877 57.36775 32899 ft 537 kts 129°
2026-05-06 07:00 23.67282 57.43218 32892 ft 539 kts 131°
2026-05-06 07:01 23.62575 57.49597 32890 ft 540 kts 131°
2026-05-06 07:01 23.57905 57.56004 32900 ft 539 kts 130°
2026-05-06 07:02 23.54045 57.61328 32887 ft 538 kts 130°
2026-05-06 07:02 23.50359 57.68312 32929 ft 537 kts 105°
2026-05-06 07:02 23.49766 57.72327 32901 ft 539 kts 91°
2026-05-06 07:03 23.50050 57.76382 32891 ft 536 kts 78°
2026-05-06 07:03 23.51631 57.84325 32894 ft 539 kts 77°
2026-05-06 07:04 23.53171 57.92346 32898 ft 542 kts 78°
2026-05-06 07:04 23.54617 58.00439 32884 ft 546 kts 78°
2026-05-06 07:05 23.56043 58.08591 32873 ft 548 kts 78°
2026-05-06 07:05 23.57477 58.16758 32857 ft 549 kts 78°
2026-05-06 07:06 23.58912 58.24924 32856 ft 547 kts 78°
2026-05-06 07:06 23.60309 58.33063 32855 ft 545 kts 78°
2026-05-06 07:07 23.61663 58.41182 32825 ft 543 kts 78°
2026-05-06 07:07 23.63011 58.49273 32843 ft 541 kts 78°
2026-05-06 07:08 23.64357 58.57338 32837 ft 540 kts 78°
2026-05-06 07:08 23.65689 58.65338 32854 ft 540 kts 78°
2026-05-06 07:09 23.67026 58.73393 32855 ft 540 kts 78°
2026-05-06 07:09 23.68359 58.81459 32856 ft 541 kts 78°
2026-05-06 07:10 23.69691 58.89543 32856 ft 542 kts 78°
2026-05-06 07:10 23.71019 58.97636 32855 ft 542 kts 79°
2026-05-06 07:11 23.72345 59.05743 32860 ft 543 kts 78°
2026-05-06 07:11 23.73668 59.13859 32858 ft 543 kts 79°
2026-05-06 07:12 23.74987 59.21977 32855 ft 543 kts 79°
2026-05-06 07:12 23.76301 59.30093 32859 ft 543 kts 79°
2026-05-06 07:13 23.77610 59.38207 32857 ft 543 kts 78°
2026-05-06 07:13 23.78915 59.46323 32861 ft 542 kts 79°
2026-05-06 07:14 23.80210 59.54378 32862 ft 542 kts 78°
2026-05-06 07:14 23.81530 59.62481 32863 ft 542 kts 78°
2026-05-06 07:15 23.82847 59.70589 32859 ft 542 kts 78°
2026-05-06 07:15 23.84156 59.78697 32863 ft 542 kts 78°
2026-05-06 07:16 23.85449 59.86812 32864 ft 542 kts 79°
2026-05-06 07:16 23.86723 59.94937 32854 ft 543 kts 79°
2026-05-06 07:17 23.87994 60.03065 32867 ft 543 kts 79°
2026-05-06 07:17 23.89263 60.11195 32867 ft 543 kts 79°
2026-05-06 07:18 23.90530 60.19328 32869 ft 543 kts 79°
2026-05-06 07:18 23.91793 60.27466 32869 ft 543 kts 79°
2026-05-06 07:19 23.93052 60.35608 32870 ft 543 kts 79°
2026-05-06 07:19 23.94306 60.43748 32872 ft 543 kts 79°
2026-05-06 07:20 23.95555 60.51889 32874 ft 543 kts 79°
2026-05-06 07:20 23.96801 60.60034 32873 ft 543 kts 79°
2026-05-06 07:21 23.98043 60.68187 32881 ft 544 kts 79°
2026-05-06 07:21 23.99281 60.76341 32876 ft 544 kts 79°
2026-05-06 07:22 24.00515 60.84502 32880 ft 544 kts 79°
2026-05-06 07:22 24.01746 60.92667 32879 ft 544 kts 79°
2026-05-06 07:23 24.02973 61.00841 32878 ft 544 kts 79°
2026-05-06 07:23 24.04195 61.09011 32884 ft 544 kts 79°
2026-05-06 07:24 24.05413 61.17190 32879 ft 545 kts 79°
2026-05-06 07:24 24.06618 61.25308 32883 ft 544 kts 79°
2026-05-06 07:25 24.07829 61.33488 32888 ft 544 kts 79°
2026-05-06 07:25 24.09038 61.41666 32884 ft 544 kts 79°
2026-05-06 07:26 24.10247 61.49842 32887 ft 544 kts 79°
2026-05-06 07:26 24.11451 61.58027 32884 ft 545 kts 79°
2026-05-06 07:27 24.12650 61.66214 32885 ft 545 kts 79°
2026-05-06 07:27 24.13844 61.74398 32888 ft 545 kts 79°
2026-05-06 07:28 24.15028 61.82591 32891 ft 545 kts 79°
2026-05-06 07:28 24.16698 61.94900 32894 ft 545 kts 80°
2026-05-06 07:29 24.17796 62.03115 32886 ft 545 kts 80°
2026-05-06 07:29 24.18899 62.11330 32890 ft 545 kts 80°
2026-05-06 07:30 24.20003 62.19550 32885 ft 545 kts 80°
2026-05-06 07:30 24.21102 62.27772 32892 ft 546 kts 80°
2026-05-06 07:31 24.22197 62.35997 32890 ft 546 kts 80°
2026-05-06 07:31 24.23287 62.44228 32888 ft 546 kts 80°
2026-05-06 07:32 24.24373 62.52456 32883 ft 546 kts 80°
2026-05-06 07:32 24.25455 62.60695 32886 ft 546 kts 80°
2026-05-06 07:33 24.26532 62.68934 32887 ft 546 kts 80°
2026-05-06 07:33 24.27606 62.77177 32884 ft 546 kts 80°
2026-05-06 07:34 24.28674 62.85416 32890 ft 546 kts 80°
2026-05-06 07:34 24.29740 62.93667 32884 ft 547 kts 80°
2026-05-06 07:35 24.30802 63.01928 32883 ft 547 kts 80°
2026-05-06 07:35 24.31859 63.10190 32883 ft 547 kts 80°
2026-05-06 07:36 24.32912 63.18454 32878 ft 547 kts 80°
2026-05-06 07:36 24.33960 63.26712 32885 ft 547 kts 80°
2026-05-06 07:37 24.35001 63.34962 32877 ft 546 kts 80°
2026-05-06 07:37 24.36038 63.43207 32876 ft 546 kts 80°
2026-05-06 07:38 24.37071 63.51453 32884 ft 546 kts 80°
2026-05-06 07:38 24.38099 63.59703 32882 ft 546 kts 80°
2026-05-06 07:39 24.39123 63.67956 32881 ft 546 kts 80°
2026-05-06 07:39 24.40143 63.76220 32879 ft 547 kts 80°
2026-05-06 07:40 24.41160 63.84493 32886 ft 547 kts 80°
2026-05-06 07:40 24.42173 63.92770 32880 ft 548 kts 80°
2026-05-06 07:41 24.43183 64.01059 32878 ft 548 kts 80°
2026-05-06 07:41 24.44189 64.09355 32884 ft 549 kts 80°
2026-05-06 07:42 24.45190 64.17656 32878 ft 549 kts 80°
2026-05-06 07:42 24.46182 64.25909 32881 ft 549 kts 80°
2026-05-06 07:43 24.47175 64.34221 32880 ft 549 kts 80°
2026-05-06 07:43 24.48164 64.42534 32882 ft 549 kts 80°
2026-05-06 07:44 24.49149 64.50851 32877 ft 549 kts 80°
2026-05-06 07:44 24.50130 64.59170 32880 ft 549 kts 80°
2026-05-06 07:45 24.51105 64.67486 32882 ft 549 kts 80°
2026-05-06 07:45 24.52076 64.75803 32883 ft 549 kts 80°
2026-05-06 07:46 24.53074 64.84117 32881 ft 548 kts 78°
2026-05-06 07:46 24.54438 64.92342 32884 ft 547 kts 76°
2026-05-06 07:47 24.55883 65.00553 32889 ft 548 kts 76°
2026-05-06 07:47 24.57294 65.08780 32883 ft 548 kts 77°
2026-05-06 07:48 24.58678 65.17022 32875 ft 549 kts 77°
2026-05-06 07:48 24.59825 65.23878 32877 ft 549 kts 77°
2026-05-06 07:49 24.61205 65.32130 32885 ft 549 kts 77°
2026-05-06 07:49 24.62579 65.40388 32876 ft 550 kts 77°
2026-05-06 07:50 24.63939 65.48659 32878 ft 550 kts 77°
2026-05-06 07:50 24.65294 65.56930 32877 ft 550 kts 77°
2026-05-06 07:51 24.66645 65.65202 32877 ft 550 kts 77°
2026-05-06 07:51 24.67994 65.73478 32874 ft 550 kts 77°
2026-05-06 07:52 24.69338 65.81759 32874 ft 550 kts 77°
2026-05-06 07:52 24.70678 65.90041 32873 ft 550 kts 77°
2026-05-06 07:53 24.72013 65.98325 32878 ft 550 kts 77°
2026-05-06 07:53 24.73343 66.06611 32872 ft 550 kts 77°
2026-05-06 07:54 24.74669 66.14898 32874 ft 550 kts 77°
2026-05-06 07:54 24.75991 66.23193 32873 ft 550 kts 77°
2026-05-06 07:55 24.77308 66.31484 32868 ft 550 kts 76°
2026-05-06 07:55 24.78621 66.39782 32865 ft 550 kts 76°
2026-05-06 07:56 24.79929 66.48075 32864 ft 550 kts 77°
2026-05-06 07:56 24.81233 66.56381 32860 ft 550 kts 77°
2026-05-06 07:57 24.82533 66.64687 32858 ft 551 kts 76°
2026-05-06 07:57 24.83851 66.72941 32851 ft 552 kts 76°
2026-05-06 07:58 24.85220 66.81251 32848 ft 551 kts 76°
2026-05-06 07:58 24.86581 66.89557 32864 ft 551 kts 76°
2026-05-06 07:59 24.87928 66.97873 32852 ft 552 kts 76°
2026-05-06 07:59 24.89271 67.06194 32858 ft 552 kts 76°
2026-05-06 08:00 24.90908 67.14389 32848 ft 541 kts 63°
2026-05-06 08:00 24.92565 67.18060 32854 ft 531 kts 52°
2026-05-06 08:00 24.94719 67.21325 32869 ft 523 kts 43°
2026-05-06 08:01 24.97288 67.24086 32858 ft 511 kts 32°
2026-05-06 08:01 25.00061 67.26526 32864 ft 510 kts 32°
2026-05-06 08:01 25.05603 67.31456 32871 ft 513 kts 32°
2026-05-06 08:02 25.11113 67.36502 32828 ft 516 kts 33°
2026-05-06 08:02 25.16612 67.41589 32827 ft 516 kts 33°
2026-05-06 08:03 25.22119 67.46677 32811 ft 516 kts 33°
2026-05-06 08:03 25.27632 67.51737 32808 ft 515 kts 32°
2026-05-06 08:04 25.33154 67.56768 32808 ft 514 kts 32°
2026-05-06 08:04 25.38665 67.61796 32810 ft 513 kts 32°
2026-05-06 08:05 25.44157 67.66823 32813 ft 512 kts 32°
2026-05-06 08:05 25.49639 67.71849 32801 ft 511 kts 32°
2026-05-06 08:06 25.55112 67.76872 32810 ft 511 kts 32°
2026-05-06 08:06 25.60573 67.81899 32796 ft 510 kts 32°
2026-05-06 08:07 25.66042 67.86923 32797 ft 511 kts 32°
2026-05-06 08:07 25.71518 67.91965 32786 ft 512 kts 32°
2026-05-06 08:08 25.76960 67.96988 32789 ft 513 kts 32°
2026-05-06 08:08 25.82446 68.02053 32780 ft 513 kts 32°
2026-05-06 08:09 25.87930 68.07125 32784 ft 513 kts 32°
2026-05-06 08:09 25.93412 68.12201 32775 ft 513 kts 32°
2026-05-06 08:10 25.98887 68.17278 32778 ft 513 kts 32°
2026-05-06 08:10 26.04358 68.22357 32788 ft 512 kts 32°
2026-05-06 08:11 26.09824 68.27438 32785 ft 512 kts 31°
2026-05-06 08:11 26.15284 68.32519 32776 ft 511 kts 31°
2026-05-06 08:12 26.20823 68.37410 32770 ft 502 kts 25°
2026-05-06 08:12 26.26834 68.41131 32779 ft 488 kts 15°
2026-05-06 08:13 26.33054 68.44108 32785 ft 487 kts 15°
2026-05-06 08:13 26.39282 68.47093 32801 ft 488 kts 15°
2026-05-06 08:14 26.45515 68.50123 32786 ft 489 kts 15°
2026-05-06 08:14 26.51740 68.53172 32802 ft 489 kts 15°
2026-05-06 08:15 26.57966 68.56230 32786 ft 489 kts 15°
2026-05-06 08:15 26.64186 68.59285 32782 ft 488 kts 15°
2026-05-06 08:16 26.70397 68.62339 32783 ft 487 kts 15°
2026-05-06 08:16 26.76600 68.65391 32780 ft 487 kts 15°
2026-05-06 08:17 26.82801 68.68446 32779 ft 487 kts 15°
2026-05-06 08:17 26.88960 68.71483 32784 ft 487 kts 15°
2026-05-06 08:18 26.95157 68.74543 32780 ft 487 kts 15°
2026-05-06 08:18 27.01355 68.77609 32801 ft 487 kts 15°
2026-05-06 08:19 27.07560 68.80680 32789 ft 488 kts 15°
2026-05-06 08:19 27.13765 68.83757 32782 ft 488 kts 15°
2026-05-06 08:20 27.19973 68.86838 32796 ft 488 kts 15°
2026-05-06 08:20 27.26179 68.89921 32782 ft 488 kts 15°
2026-05-06 08:21 27.32378 68.93006 32796 ft 487 kts 15°
2026-05-06 08:21 27.38584 68.96099 32781 ft 487 kts 15°
2026-05-06 08:22 27.44779 68.99189 32778 ft 487 kts 15°
2026-05-06 08:22 27.50970 69.02285 32777 ft 487 kts 16°
2026-05-06 08:23 27.57156 69.05391 32778 ft 487 kts 16°
2026-05-06 08:23 27.63346 69.08502 32793 ft 487 kts 16°
2026-05-06 08:24 27.69536 69.11617 32779 ft 487 kts 16°
2026-05-06 08:24 27.75728 69.14736 32776 ft 487 kts 16°
2026-05-06 08:25 27.81917 69.17858 32778 ft 487 kts 16°
2026-05-06 08:25 27.88135 69.20869 32784 ft 482 kts 11°
2026-05-06 08:26 27.94554 69.22671 32780 ft 472 kts
2026-05-06 08:26 28.01019 69.23328 32773 ft 465 kts 356°
2026-05-06 08:27 28.07478 69.23696 32771 ft 465 kts 356°
2026-05-06 08:27 28.13940 69.24084 32773 ft 465 kts 356°
2026-05-06 08:28 28.20410 69.24500 32789 ft 466 kts 356°
2026-05-06 08:28 28.26849 69.24923 32776 ft 467 kts 356°
2026-05-06 08:29 28.33337 69.25350 32772 ft 467 kts 356°
2026-05-06 08:29 28.39833 69.25778 32773 ft 468 kts 356°
2026-05-06 08:30 28.46329 69.26205 32780 ft 468 kts 356°
2026-05-06 08:30 28.52832 69.26633 32790 ft 468 kts 357°
2026-05-06 08:31 28.59342 69.27063 32779 ft 469 kts 357°
2026-05-06 08:31 28.65854 69.27493 32782 ft 469 kts 357°
2026-05-06 08:32 28.72372 69.27924 32789 ft 469 kts 357°
2026-05-06 08:32 28.78887 69.28362 32800 ft 470 kts 357°
2026-05-06 08:33 28.85415 69.28806 32801 ft 470 kts 357°
2026-05-06 08:33 28.91955 69.29250 32801 ft 471 kts 357°
2026-05-06 08:34 29.01770 69.29916 32804 ft 471 kts 357°
2026-05-06 08:35 29.08318 69.30362 32805 ft 472 kts 357°
2026-05-06 08:35 29.13771 69.30729 32807 ft 472 kts 357°
2026-05-06 08:36 29.20336 69.31171 32810 ft 473 kts 357°
2026-05-06 08:36 29.26906 69.31614 32806 ft 473 kts 357°
2026-05-06 08:37 29.33477 69.32058 32815 ft 474 kts 358°
2026-05-06 08:37 29.40060 69.32505 32809 ft 474 kts 358°
2026-05-06 08:38 29.46642 69.32950 32791 ft 474 kts 358°
2026-05-06 08:38 29.53230 69.33402 32812 ft 475 kts 358°
2026-05-06 08:39 29.59826 69.33846 32794 ft 475 kts 358°
2026-05-06 08:39 29.66423 69.34295 32813 ft 475 kts 358°
2026-05-06 08:40 29.73021 69.34745 32805 ft 475 kts 358°
2026-05-06 08:40 29.79608 69.35195 32818 ft 474 kts 358°
2026-05-06 08:41 29.86184 69.35645 32848 ft 473 kts 358°
2026-05-06 08:41 29.92767 69.36095 32820 ft 474 kts 358°
2026-05-06 08:42 29.99358 69.36546 32817 ft 475 kts 358°
2026-05-06 08:42 30.05956 69.36999 32818 ft 475 kts 358°
2026-05-06 08:43 30.12558 69.37453 32839 ft 475 kts 358°
2026-05-06 08:43 30.19111 69.37905 32821 ft 474 kts 358°
2026-05-06 08:44 30.25695 69.38358 32815 ft 474 kts 358°
2026-05-06 08:44 30.32275 69.38811 32809 ft 473 kts 358°
2026-05-06 08:45 30.38845 69.39263 32812 ft 473 kts 358°
2026-05-06 08:45 30.45421 69.39716 32824 ft 474 kts 358°
2026-05-06 08:46 30.52006 69.40170 32825 ft 474 kts 358°
2026-05-06 08:46 30.58599 69.40626 32823 ft 475 kts 358°
2026-05-06 08:47 30.65195 69.41083 32827 ft 475 kts 358°
2026-05-06 08:47 30.71786 69.41540 32826 ft 475 kts 358°
2026-05-06 08:48 30.78381 69.41998 32835 ft 475 kts 358°
2026-05-06 08:48 30.84971 69.42457 32851 ft 474 kts 358°
2026-05-06 08:49 30.91565 69.42916 32832 ft 474 kts 358°
2026-05-06 08:49 30.98155 69.43375 32852 ft 474 kts 358°
2026-05-06 08:50 31.04699 69.43832 32834 ft 474 kts 359°
2026-05-06 08:50 31.11322 69.44296 32835 ft 474 kts 358°
2026-05-06 08:51 31.17858 69.44753 32844 ft 474 kts 358°
2026-05-06 08:51 31.24438 69.45215 32846 ft 474 kts 359°
2026-05-06 08:52 31.31023 69.45725 32835 ft 476 kts
2026-05-06 08:52 31.37488 69.47715 32843 ft 486 kts 16°
2026-05-06 08:53 31.43544 69.51396 32842 ft 494 kts 26°
2026-05-06 08:53 31.49397 69.55625 32861 ft 495 kts 26°
2026-05-06 08:54 31.55261 69.59852 32852 ft 494 kts 26°
2026-05-06 08:54 31.61138 69.64032 32837 ft 494 kts 25°
2026-05-06 08:55 31.67016 69.68202 32845 ft 493 kts 25°
2026-05-06 08:55 31.72888 69.72365 32850 ft 493 kts 25°
2026-05-06 08:56 31.78762 69.76538 32846 ft 493 kts 25°
2026-05-06 08:56 31.84621 69.80713 32833 ft 492 kts 25°
2026-05-06 08:57 31.90466 69.84886 32852 ft 492 kts 26°
2026-05-06 08:57 31.96319 69.89064 32828 ft 491 kts 26°
2026-05-06 08:58 32.02120 69.93271 32831 ft 489 kts 25°
2026-05-06 08:58 32.07908 69.97373 32859 ft 489 kts 25°
2026-05-06 08:59 32.13725 70.01528 32838 ft 489 kts 26°
2026-05-06 08:59 32.19540 70.05708 32834 ft 489 kts 26°
2026-05-06 09:00 32.25341 70.09886 32832 ft 488 kts 26°
2026-05-06 09:00 32.31134 70.14064 32829 ft 488 kts 26°
2026-05-06 09:01 32.36927 70.18244 32844 ft 488 kts 26°
2026-05-06 09:01 32.42761 70.22342 32834 ft 487 kts 25°
2026-05-06 09:02 32.48609 70.26388 32835 ft 487 kts 25°
2026-05-06 09:02 32.54447 70.30453 32832 ft 487 kts 25°
2026-05-06 09:03 32.60273 70.34529 32816 ft 485 kts 25°
2026-05-06 09:03 32.66077 70.38633 32834 ft 486 kts 27°
2026-05-06 09:04 32.71775 70.42982 32819 ft 487 kts 27°
2026-05-06 09:04 32.77452 70.47359 32813 ft 486 kts 27°
2026-05-06 09:05 32.83142 70.51698 32812 ft 486 kts 27°
2026-05-06 09:05 32.88827 70.56023 32827 ft 483 kts 26°
2026-05-06 09:05 32.91810 70.57782 32807 ft 474 kts 14°
2026-05-06 09:06 32.94959 70.58786 32831 ft 466 kts
2026-05-06 09:06 33.01333 70.59017 32833 ft 454 kts 351°
2026-05-06 09:07 33.07640 70.58321 32821 ft 455 kts 351°
2026-05-06 09:07 33.13956 70.57664 32833 ft 456 kts 352°
2026-05-06 09:08 33.20292 70.57043 32853 ft 457 kts 352°
2026-05-06 09:08 33.26625 70.56438 32842 ft 456 kts 352°
2026-05-06 09:09 33.32939 70.55836 32848 ft 455 kts 352°
2026-05-06 09:09 33.39231 70.55232 32869 ft 453 kts 352°
2026-05-06 09:10 33.45518 70.54627 32872 ft 453 kts 352°
2026-05-06 09:10 33.51805 70.54021 32886 ft 453 kts 352°
2026-05-06 09:11 33.58083 70.53408 32905 ft 453 kts 353°
2026-05-06 09:11 33.64323 70.52812 32910 ft 453 kts 352°
2026-05-06 09:12 33.70604 70.52205 32938 ft 454 kts 352°
2026-05-06 09:12 33.76912 70.51592 32930 ft 455 kts 352°
2026-05-06 09:13 33.83232 70.50979 32931 ft 456 kts 353°
2026-05-06 09:13 33.89460 70.49905 32916 ft 449 kts 337°
2026-05-06 09:13 33.92198 70.48143 32940 ft 447 kts 324°
2026-05-06 09:14 33.94604 70.45765 32925 ft 449 kts 316°
2026-05-06 09:14 33.96617 70.42893 32904 ft 451 kts 303°
2026-05-06 09:14 33.98102 70.39577 32949 ft 451 kts 300°
2026-05-06 09:15 34.00954 70.32807 32916 ft 455 kts 300°
2026-05-06 09:15 34.03868 70.26028 32897 ft 456 kts 300°
2026-05-06 09:16 34.06822 70.19273 32869 ft 455 kts 300°
2026-05-06 09:16 34.09777 70.12536 32901 ft 454 kts 300°
2026-05-06 09:17 34.12716 70.05815 32893 ft 453 kts 300°
2026-05-06 09:17 34.15652 69.99075 32913 ft 455 kts 300°
2026-05-06 09:18 34.18596 69.92309 32921 ft 456 kts 300°
2026-05-06 09:18 34.21540 69.85517 32900 ft 456 kts 300°
2026-05-06 09:19 34.24477 69.78703 32908 ft 458 kts 300°
2026-05-06 09:19 34.27397 69.71920 32928 ft 458 kts 300°
2026-05-06 09:20 34.30343 69.65077 32944 ft 459 kts 300°
2026-05-06 09:20 34.33291 69.58212 32909 ft 460 kts 300°
2026-05-06 09:21 34.36234 69.51338 32892 ft 460 kts 299°
2026-05-06 09:21 34.39171 69.44468 32886 ft 460 kts 299°
2026-05-06 09:22 34.42103 69.37596 32902 ft 459 kts 299°
2026-05-06 09:22 34.45027 69.30726 32914 ft 459 kts 299°
2026-05-06 09:23 34.47952 69.23845 32902 ft 460 kts 299°
2026-05-06 09:23 34.51264 69.17279 32900 ft 456 kts 312°
2026-05-06 09:24 34.55113 69.12928 32902 ft 456 kts 323°
2026-05-06 09:24 34.60608 69.09084 32936 ft 457 kts 332°
2026-05-06 09:25 34.66275 69.05524 32921 ft 459 kts 332°
2026-05-06 09:25 34.71942 69.01917 32928 ft 460 kts 331°
2026-05-06 09:26 34.77597 68.98269 32994 ft 461 kts 331°
2026-05-06 09:26 34.80419 68.96442 33337 ft 458 kts 331°
2026-05-06 09:26 34.83226 68.94616 33652 ft 457 kts 330°
2026-05-06 09:26 34.86027 68.92793 33897 ft 456 kts 330°
2026-05-06 09:27 34.88833 68.90966 33952 ft 458 kts 331°
2026-05-06 09:27 34.94439 68.87313 33973 ft 456 kts 330°
2026-05-06 09:28 35.00031 68.83667 34044 ft 456 kts 330°
2026-05-06 09:28 35.05630 68.80011 34068 ft 457 kts 330°
2026-05-06 09:29 35.11247 68.76336 34065 ft 459 kts 330°
2026-05-06 09:29 35.16889 68.72642 34111 ft 461 kts 330°
2026-05-06 09:30 35.22543 68.68932 34124 ft 462 kts 330°
2026-05-06 09:30 35.28215 68.65204 34135 ft 463 kts 330°
2026-05-06 09:31 35.33896 68.61465 34130 ft 463 kts 330°
2026-05-06 09:31 35.39558 68.57730 34118 ft 462 kts 330°
2026-05-06 09:32 35.45162 68.54033 34113 ft 460 kts 330°
2026-05-06 09:32 35.50788 68.50308 34092 ft 459 kts 330°
2026-05-06 09:33 35.56406 68.46586 34075 ft 459 kts 330°
2026-05-06 09:33 35.62029 68.42852 34077 ft 460 kts 330°
2026-05-06 09:34 35.67650 68.39092 34070 ft 460 kts 330°
2026-05-06 09:34 35.73276 68.35316 34075 ft 461 kts 330°
2026-05-06 09:35 35.78917 68.31524 34084 ft 462 kts 330°
2026-05-06 09:35 35.84567 68.27724 34071 ft 463 kts 330°
2026-05-06 09:36 35.90222 68.23914 34060 ft 463 kts 330°
2026-05-06 09:36 35.95876 68.20097 34055 ft 463 kts 330°
2026-05-06 09:37 36.01532 68.16273 34050 ft 464 kts 330°
2026-05-06 09:37 36.07194 68.12440 34038 ft 464 kts 330°
2026-05-06 09:38 36.12859 68.08597 34025 ft 465 kts 330°
2026-05-06 09:38 36.18495 68.04768 34013 ft 466 kts 330°
2026-05-06 09:39 36.24175 68.00903 34004 ft 466 kts 330°
2026-05-06 09:39 36.29852 67.97033 33990 ft 466 kts 330°
2026-05-06 09:40 36.35529 67.93156 34006 ft 466 kts 329°
2026-05-06 09:40 36.44033 67.87337 33973 ft 465 kts 329°
2026-05-06 09:41 36.49692 67.83458 33973 ft 464 kts 329°
2026-05-06 09:41 36.55343 67.79575 33966 ft 464 kts 329°
2026-05-06 09:42 36.60993 67.75688 33967 ft 464 kts 329°
2026-05-06 09:42 36.66648 67.71789 33974 ft 465 kts 329°
2026-05-06 09:43 36.72308 67.67883 33952 ft 465 kts 329°
2026-05-06 09:43 36.77975 67.63981 33950 ft 465 kts 329°
2026-05-06 09:44 36.83641 67.60080 33952 ft 465 kts 329°
2026-05-06 09:44 36.89303 67.56173 33936 ft 465 kts 329°
2026-05-06 09:45 36.94967 67.52256 33924 ft 466 kts 329°
2026-05-06 09:45 37.00640 67.48325 33928 ft 466 kts 329°
2026-05-06 09:46 37.06320 67.44383 33922 ft 467 kts 329°
2026-05-06 09:46 37.12011 67.40426 33919 ft 468 kts 329°
2026-05-06 09:47 37.17704 67.36461 33920 ft 468 kts 329°
2026-05-06 09:47 37.23382 67.32443 33919 ft 468 kts 328°
2026-05-06 09:48 37.28908 67.28221 33939 ft 468 kts 327°
2026-05-06 09:48 37.34479 67.23900 33945 ft 467 kts 327°
2026-05-06 09:49 37.39986 67.19661 33927 ft 467 kts 327°
2026-05-06 09:49 37.45538 67.15404 33930 ft 467 kts 327°
2026-05-06 09:50 37.51084 67.11149 33927 ft 467 kts 327°
2026-05-06 09:50 37.56631 67.06886 33937 ft 467 kts 327°
2026-05-06 09:51 37.62177 67.02614 33931 ft 467 kts 327°
2026-05-06 09:51 37.67726 66.98332 33953 ft 467 kts 327°
2026-05-06 09:52 37.73269 66.94047 33972 ft 467 kts 327°
2026-05-06 09:52 37.78813 66.89753 33988 ft 467 kts 327°
2026-05-06 09:53 37.84348 66.85459 33987 ft 466 kts 327°
2026-05-06 09:53 37.89877 66.81162 34010 ft 466 kts 327°
2026-05-06 09:54 37.95406 66.76856 34020 ft 467 kts 326°
2026-05-06 09:54 38.00943 66.72537 34026 ft 468 kts 326°
2026-05-06 09:55 38.06467 66.68182 34022 ft 467 kts 326°
2026-05-06 09:55 38.11965 66.63801 34020 ft 467 kts 326°
2026-05-06 09:56 38.17458 66.59419 34007 ft 466 kts 326°
2026-05-06 09:56 38.22950 66.55033 34000 ft 466 kts 326°
2026-05-06 09:57 38.28401 66.50676 33980 ft 466 kts 326°
2026-05-06 09:57 38.33887 66.46283 33981 ft 466 kts 326°
2026-05-06 09:58 38.39369 66.41884 33974 ft 466 kts 326°
2026-05-06 09:58 38.44851 66.37478 33960 ft 466 kts 326°
2026-05-06 09:59 38.50334 66.33062 33962 ft 467 kts 326°
2026-05-06 09:59 38.55824 66.28632 33961 ft 467 kts 326°
2026-05-06 10:00 38.61313 66.24198 33945 ft 467 kts 325°
2026-05-06 10:00 38.66820 66.19807 33949 ft 467 kts 326°
2026-05-06 10:01 38.72353 66.15458 33942 ft 467 kts 326°
2026-05-06 10:01 38.77887 66.11096 33932 ft 467 kts 326°
2026-05-06 10:02 38.83414 66.06721 33947 ft 467 kts 326°
2026-05-06 10:02 38.88944 66.02331 33937 ft 468 kts 326°
2026-05-06 10:03 38.94478 65.97927 33936 ft 468 kts 326°
2026-05-06 10:03 39.00011 65.93516 33954 ft 468 kts 326°
2026-05-06 10:04 39.05510 65.89124 33945 ft 469 kts 325°
2026-05-06 10:04 39.11047 65.84694 33928 ft 469 kts 325°
2026-05-06 10:05 39.16592 65.80250 33942 ft 469 kts 325°
2026-05-06 10:05 39.22139 65.75796 33934 ft 470 kts 325°
2026-05-06 10:06 39.27689 65.71331 33924 ft 470 kts 325°
2026-05-06 10:06 39.33240 65.66856 33927 ft 470 kts 325°
2026-05-06 10:07 39.38794 65.62371 33938 ft 471 kts 325°
2026-05-06 10:07 39.44346 65.57878 33926 ft 471 kts 325°
2026-05-06 10:08 39.49904 65.53372 33936 ft 472 kts 325°
2026-05-06 10:08 39.55470 65.48851 33942 ft 473 kts 325°
2026-05-06 10:09 39.61044 65.44315 33935 ft 473 kts 325°
2026-05-06 10:09 39.66616 65.39771 33937 ft 473 kts 325°
2026-05-06 10:10 39.72190 65.35218 33932 ft 473 kts 325°
2026-05-06 10:10 39.77763 65.30656 33936 ft 473 kts 325°
2026-05-06 10:11 39.83332 65.26087 33936 ft 474 kts 324°
2026-05-06 10:11 39.87966 65.22281 33939 ft 474 kts 324°
2026-05-06 10:12 39.93539 65.17695 33937 ft 474 kts 324°
2026-05-06 10:12 39.99120 65.13092 33932 ft 475 kts 324°
2026-05-06 10:13 40.04696 65.08485 33933 ft 475 kts 324°
2026-05-06 10:13 40.10278 65.03863 33967 ft 475 kts 324°
2026-05-06 10:14 40.15854 64.99237 33959 ft 475 kts 324°
2026-05-06 10:14 40.21426 64.94606 33946 ft 475 kts 324°
2026-05-06 10:15 40.27002 64.89962 33943 ft 475 kts 324°
2026-05-06 10:15 40.32579 64.85309 33934 ft 475 kts 324°
2026-05-06 10:16 40.38155 64.80646 33932 ft 476 kts 324°
2026-05-06 10:16 40.43735 64.75971 33927 ft 476 kts 324°
2026-05-06 10:17 40.49314 64.71287 33926 ft 476 kts 324°
2026-05-06 10:17 40.54892 64.66596 33926 ft 476 kts 324°
2026-05-06 10:18 40.60468 64.61896 33929 ft 476 kts 324°
2026-05-06 10:18 40.66043 64.57187 33922 ft 476 kts 324°
2026-05-06 10:19 40.71573 64.52507 33923 ft 476 kts 324°
2026-05-06 10:19 40.77140 64.47787 33919 ft 476 kts 324°
2026-05-06 10:20 40.82705 64.43059 33923 ft 475 kts 324°
2026-05-06 10:20 40.88260 64.38329 33936 ft 475 kts 324°
2026-05-06 10:21 40.93823 64.33583 33920 ft 476 kts 324°
2026-05-06 10:21 40.99397 64.28817 33927 ft 478 kts 324°
2026-05-06 10:22 41.04986 64.24029 33934 ft 479 kts 323°
2026-05-06 10:22 41.10592 64.19217 33929 ft 481 kts 323°
2026-05-06 10:23 41.16207 64.14387 33926 ft 481 kts 323°
2026-05-06 10:23 41.21827 64.09542 33936 ft 482 kts 323°
2026-05-06 10:24 41.27447 64.04688 33927 ft 482 kts 323°
2026-05-06 10:24 41.33069 63.99821 33926 ft 482 kts 323°
2026-05-06 10:25 41.38697 63.94940 33933 ft 483 kts 323°
2026-05-06 10:25 41.44335 63.90041 33921 ft 484 kts 323°
2026-05-06 10:26 41.49982 63.85126 33917 ft 485 kts 323°
2026-05-06 10:26 41.55636 63.80194 33919 ft 486 kts 323°
2026-05-06 10:27 41.61293 63.75248 33909 ft 486 kts 323°
2026-05-06 10:27 41.66949 63.70291 33907 ft 486 kts 323°
2026-05-06 10:28 41.72604 63.65327 33907 ft 486 kts 323°
2026-05-06 10:28 41.78251 63.60358 33901 ft 485 kts 323°
2026-05-06 10:29 41.83890 63.55385 33895 ft 485 kts 322°
2026-05-06 10:29 41.89536 63.50396 33898 ft 486 kts 322°
2026-05-06 10:30 41.95156 63.45417 33905 ft 488 kts 322°
2026-05-06 10:30 42.00826 63.40385 33899 ft 489 kts 322°
2026-05-06 10:31 42.06507 63.35331 33897 ft 490 kts 322°
2026-05-06 10:31 42.12195 63.30261 33894 ft 491 kts 322°
2026-05-06 10:32 42.17884 63.25179 33904 ft 491 kts 322°
2026-05-06 10:32 42.23577 63.20081 33898 ft 491 kts 322°
2026-05-06 10:33 42.29268 63.14974 33899 ft 491 kts 322°
2026-05-06 10:33 42.34960 63.09855 33904 ft 492 kts 322°
2026-05-06 10:34 42.40653 63.04724 33895 ft 492 kts 322°
2026-05-06 10:34 42.46351 62.99581 33894 ft 492 kts 322°
2026-05-06 10:35 42.52052 62.94425 33907 ft 493 kts 321°
2026-05-06 10:35 42.57762 62.89246 33898 ft 494 kts 321°
2026-05-06 10:36 42.63473 62.84056 33911 ft 494 kts 321°
2026-05-06 10:36 42.69183 62.78855 33897 ft 494 kts 321°
2026-05-06 10:37 42.74895 62.73640 33895 ft 495 kts 321°
2026-05-06 10:37 42.80604 62.68416 33907 ft 495 kts 321°
2026-05-06 10:38 42.86321 62.63173 33890 ft 495 kts 321°
2026-05-06 10:38 42.92037 62.57918 33886 ft 496 kts 321°
2026-05-06 10:39 42.97715 62.52687 33899 ft 496 kts 320°
2026-05-06 10:39 43.03437 62.47403 33888 ft 496 kts 320°
2026-05-06 10:40 43.09153 62.42113 33883 ft 496 kts 320°
2026-05-06 10:40 43.14871 62.36809 33885 ft 497 kts 320°
2026-05-06 10:41 43.20590 62.31491 33882 ft 497 kts 320°
2026-05-06 10:41 43.26307 62.26164 33880 ft 496 kts 320°
2026-05-06 10:42 43.32015 62.20832 33870 ft 496 kts 320°
2026-05-06 10:42 43.37716 62.15493 33871 ft 496 kts 320°
2026-05-06 10:43 43.43414 62.10147 33869 ft 496 kts 320°
2026-05-06 10:44 43.52605 62.03351 33879 ft 504 kts 329°
2026-05-06 10:44 43.58983 61.99339 33856 ft 504 kts 329°
2026-05-06 10:45 43.65340 61.95278 33870 ft 504 kts 329°
2026-05-06 10:45 43.71688 61.91163 33871 ft 504 kts 329°
2026-05-06 10:46 43.78037 61.87024 33872 ft 505 kts 329°
2026-05-06 10:46 43.84392 61.82875 33880 ft 505 kts 329°
2026-05-06 10:47 43.90752 61.78715 33869 ft 506 kts 329°
2026-05-06 10:47 43.97113 61.74547 33888 ft 505 kts 328°
2026-05-06 10:48 44.03464 61.70373 33871 ft 505 kts 328°
2026-05-06 10:48 44.09804 61.66197 33867 ft 504 kts 328°
2026-05-06 10:49 44.16130 61.62021 33888 ft 503 kts 329°
2026-05-06 10:49 44.22449 61.57851 33874 ft 503 kts 329°
2026-05-06 10:50 44.28767 61.53676 33868 ft 502 kts 329°
2026-05-06 10:50 44.35083 61.49490 33876 ft 502 kts 329°
2026-05-06 10:51 44.41396 61.45295 33873 ft 502 kts 329°
2026-05-06 10:51 44.47706 61.41092 33872 ft 502 kts 329°
2026-05-06 10:52 44.54020 61.36875 33884 ft 503 kts 329°
2026-05-06 10:52 44.60335 61.32648 33865 ft 503 kts 329°
2026-05-06 10:53 44.66603 61.28442 33883 ft 503 kts 329°
2026-05-06 10:53 44.72917 61.24195 33886 ft 504 kts 329°
2026-05-06 10:54 44.79243 61.19930 33886 ft 504 kts 329°
2026-05-06 10:54 44.85569 61.15654 33882 ft 505 kts 329°
2026-05-06 10:55 44.91908 61.11359 33893 ft 506 kts 329°
2026-05-06 10:55 44.98257 61.07046 33887 ft 507 kts 329°
2026-05-06 10:56 45.04610 61.02721 33882 ft 507 kts 329°
2026-05-06 10:56 45.10976 60.98375 33892 ft 508 kts 328°
2026-05-06 10:57 45.17346 60.94016 33885 ft 508 kts 328°
2026-05-06 10:57 45.23715 60.89647 33903 ft 508 kts 328°
2026-05-06 10:58 45.30072 60.85275 33891 ft 507 kts 328°
2026-05-06 10:58 45.35339 60.81645 33883 ft 505 kts 328°
2026-05-06 10:59 45.41513 60.77001 33884 ft 497 kts 321°
2026-05-06 10:59 45.47735 60.70022 33895 ft 486 kts 311°
2026-05-06 11:00 45.52723 60.63528 33897 ft 486 kts 311°
2026-05-06 11:00 45.56914 60.58080 33897 ft 487 kts 311°
2026-05-06 11:01 45.61942 60.51584 33907 ft 488 kts 311°
2026-05-06 11:01 45.66990 60.45075 33894 ft 489 kts 311°
2026-05-06 11:02 45.72036 60.38556 33900 ft 489 kts 311°
2026-05-06 11:02 45.77081 60.32017 33910 ft 490 kts 311°
2026-05-06 11:03 45.82130 60.25454 33900 ft 490 kts 311°
2026-05-06 11:03 45.87179 60.18875 33901 ft 490 kts 311°
2026-05-06 11:04 45.92190 60.12330 33916 ft 490 kts 311°
2026-05-06 11:04 45.97237 60.05718 33903 ft 492 kts 311°
2026-05-06 11:05 46.02291 59.99080 33885 ft 492 kts 311°
2026-05-06 11:05 46.07344 59.92428 33908 ft 492 kts 310°
2026-05-06 11:06 46.12403 59.85750 33915 ft 493 kts 311°
2026-05-06 11:06 46.17460 59.79056 33902 ft 494 kts 311°
2026-05-06 11:07 46.22518 59.72347 33903 ft 494 kts 310°
2026-05-06 11:07 46.27456 59.65484 33917 ft 492 kts 308°
2026-05-06 11:08 46.32279 59.58482 33911 ft 491 kts 308°
2026-05-06 11:08 46.37106 59.51470 33904 ft 492 kts 308°
2026-05-06 11:09 46.41946 59.44477 33918 ft 492 kts 308°
2026-05-06 11:09 46.46796 59.37471 33910 ft 492 kts 308°
2026-05-06 11:10 46.51648 59.30446 33902 ft 493 kts 308°
2026-05-06 11:10 46.56498 59.23402 33905 ft 493 kts 308°
2026-05-06 11:11 46.61316 59.16388 33891 ft 493 kts 308°
2026-05-06 11:11 46.66149 59.09330 33884 ft 492 kts 308°
2026-05-06 11:12 46.70965 59.02279 33888 ft 490 kts 307°
2026-05-06 11:12 46.75764 58.95234 33895 ft 489 kts 307°
2026-05-06 11:13 46.80542 58.88199 33884 ft 487 kts 307°
2026-05-06 11:13 46.85299 58.81177 33879 ft 486 kts 307°
2026-05-06 11:14 46.90041 58.74157 33893 ft 485 kts 307°
2026-05-06 11:14 46.94774 58.67133 33889 ft 485 kts 307°
2026-05-06 11:15 46.99498 58.60104 33870 ft 484 kts 307°
2026-05-06 11:15 47.04212 58.53069 33881 ft 483 kts 307°
2026-05-06 11:16 47.08916 58.46031 33880 ft 483 kts 307°
2026-05-06 11:16 47.13617 58.38979 33879 ft 483 kts 306°
2026-05-06 11:17 47.18317 58.31908 33867 ft 484 kts 306°
2026-05-06 11:17 47.23020 58.24812 33893 ft 486 kts 306°
2026-05-06 11:18 47.27743 58.17672 33883 ft 487 kts 306°
2026-05-06 11:18 47.32475 58.10501 33877 ft 488 kts 306°
2026-05-06 11:19 47.37213 58.03314 33871 ft 489 kts 306°
2026-05-06 11:19 47.41945 57.96114 33878 ft 490 kts 305°
2026-05-06 11:20 47.46684 57.88880 33872 ft 490 kts 305°
2026-05-06 11:20 47.51420 57.81630 33871 ft 490 kts 305°
2026-05-06 11:21 47.56153 57.74367 33910 ft 490 kts 305°
2026-05-06 11:21 47.60883 57.67087 33872 ft 490 kts 305°
2026-05-06 11:22 47.65578 57.59839 33864 ft 490 kts 305°
2026-05-06 11:22 47.70287 57.52537 33863 ft 489 kts 304°
2026-05-06 11:23 47.74986 57.45225 33860 ft 489 kts 304°
2026-05-06 11:23 47.79668 57.37920 33858 ft 487 kts 304°
2026-05-06 11:24 47.84336 57.30618 33857 ft 486 kts 304°
2026-05-06 11:24 47.88988 57.23318 33853 ft 486 kts 304°
2026-05-06 11:25 47.93638 57.16000 33866 ft 486 kts 305°
2026-05-06 11:25 47.98278 57.08679 33853 ft 486 kts 305°
2026-05-06 11:26 48.02916 57.01342 33843 ft 486 kts 305°
2026-05-06 11:26 48.07548 56.93990 33865 ft 486 kts 306°
2026-05-06 11:27 48.12188 56.86606 33849 ft 488 kts 306°
2026-05-06 11:27 48.16836 56.79191 33844 ft 488 kts 306°
2026-05-06 11:28 48.21482 56.71756 33834 ft 489 kts 306°
2026-05-06 11:28 48.26131 56.64294 33834 ft 490 kts 306°
2026-05-06 11:29 48.30782 56.56811 33833 ft 490 kts 306°
2026-05-06 11:29 48.35430 56.49311 33831 ft 490 kts 306°
2026-05-06 11:30 48.40075 56.41793 33855 ft 490 kts 306°
2026-05-06 11:30 48.44717 56.34257 33837 ft 491 kts 306°
2026-05-06 11:31 48.49324 56.26758 33821 ft 490 kts 306°
2026-05-06 11:31 48.53950 56.19207 33825 ft 490 kts 306°
2026-05-06 11:32 48.58568 56.11651 33828 ft 490 kts 306°
2026-05-06 11:32 48.63181 56.04083 33827 ft 489 kts 306°
2026-05-06 11:33 48.67787 55.96506 33825 ft 489 kts 306°
2026-05-06 11:33 48.72393 55.88920 33822 ft 490 kts 306°
2026-05-06 11:34 48.77008 55.81324 33817 ft 490 kts 306°
2026-05-06 11:34 48.81614 55.73715 33820 ft 490 kts 306°
2026-05-06 11:35 48.86215 55.66088 33816 ft 490 kts 306°
2026-05-06 11:35 48.90803 55.58431 33834 ft 490 kts 306°
2026-05-06 11:36 48.95393 55.50738 33814 ft 491 kts 306°
2026-05-06 11:36 48.99980 55.43032 33810 ft 491 kts 306°
2026-05-06 11:37 49.04567 55.35305 33816 ft 492 kts 306°
2026-05-06 11:37 49.09148 55.27561 33820 ft 492 kts 307°
2026-05-06 11:38 49.13735 55.19791 33815 ft 493 kts 307°
2026-05-06 11:38 49.18316 55.12007 33808 ft 492 kts 307°
2026-05-06 11:39 49.22883 55.04219 33808 ft 492 kts 307°
2026-05-06 11:39 49.27456 54.96393 33804 ft 493 kts 308°
2026-05-06 11:40 49.32026 54.88551 33800 ft 494 kts 308°
2026-05-06 11:40 49.36563 54.80743 33802 ft 494 kts 308°
2026-05-06 11:41 49.41126 54.72865 33818 ft 494 kts 308°
2026-05-06 11:41 49.45698 54.64946 33809 ft 496 kts 308°
2026-05-06 11:42 49.50279 54.56990 33810 ft 497 kts 308°
2026-05-06 11:42 49.54862 54.49005 33809 ft 498 kts 308°
2026-05-06 11:43 49.59450 54.40985 33810 ft 499 kts 309°
2026-05-06 11:43 49.64043 54.32936 33806 ft 500 kts 309°
2026-05-06 11:44 49.70921 54.20831 33803 ft 500 kts 309°
2026-05-06 11:44 49.75500 54.12740 33810 ft 500 kts 310°
2026-05-06 11:45 49.80080 54.04622 34057 ft 501 kts 309°
2026-05-06 11:45 49.82364 54.00565 34353 ft 499 kts 309°
2026-05-06 11:45 49.84640 53.96516 34612 ft 498 kts 309°
2026-05-06 11:46 49.86914 53.92464 34836 ft 498 kts 309°
2026-05-06 11:46 49.89189 53.88404 35020 ft 499 kts 309°
2026-05-06 11:46 49.91460 53.84344 35254 ft 498 kts 309°
2026-05-06 11:46 49.92965 53.81651 35419 ft 498 kts 309°
2026-05-06 11:47 49.95229 53.77593 35632 ft 498 kts 309°
2026-05-06 11:47 49.97492 53.73528 35708 ft 499 kts 309°
2026-05-06 11:47 50.02022 53.65375 35789 ft 496 kts 309°
2026-05-06 11:48 50.06505 53.57281 35794 ft 492 kts 309°
2026-05-06 11:48 50.10961 53.49210 35799 ft 491 kts 309°
2026-05-06 11:49 50.15412 53.41122 35804 ft 492 kts 309°
2026-05-06 11:49 50.19870 53.32994 35813 ft 494 kts 309°
2026-05-06 11:50 50.24339 53.24823 35818 ft 496 kts 309°
2026-05-06 11:50 50.28821 53.16603 35809 ft 498 kts 308°
2026-05-06 11:51 50.33312 53.08340 35808 ft 499 kts 309°
2026-05-06 11:51 50.37805 53.00047 35811 ft 499 kts 308°
2026-05-06 11:52 50.42293 52.91735 35813 ft 499 kts 308°
2026-05-06 11:52 50.46771 52.83415 35818 ft 499 kts 308°
2026-05-06 11:53 50.51242 52.75082 35808 ft 498 kts 308°
2026-05-06 11:53 50.55702 52.66743 35814 ft 498 kts 308°
2026-05-06 11:54 50.60117 52.58459 35819 ft 498 kts 308°
2026-05-06 11:54 50.64565 52.50088 35833 ft 499 kts 308°
2026-05-06 11:55 50.69021 52.41678 35833 ft 500 kts 308°
2026-05-06 11:55 50.73501 52.33258 35833 ft 502 kts 309°
2026-05-06 11:56 50.77994 52.24828 35836 ft 502 kts 309°
2026-05-06 11:56 50.82484 52.16375 35841 ft 502 kts 309°
2026-05-06 11:57 50.86972 52.07886 35839 ft 504 kts 309°
2026-05-06 11:57 50.91460 51.99370 35846 ft 503 kts 309°
2026-05-06 11:58 50.95923 51.90866 35849 ft 500 kts 310°
2026-05-06 11:58 51.00360 51.82386 35846 ft 498 kts 310°
2026-05-06 11:59 51.04775 51.73921 35850 ft 497 kts 309°
2026-05-06 11:59 51.09183 51.65442 35849 ft 498 kts 309°
2026-05-06 12:00 51.13678 51.57076 35843 ft 497 kts 315°
2026-05-06 12:00 51.18926 51.49941 35821 ft 496 kts 326°
2026-05-06 12:01 51.24701 51.43898 35831 ft 497 kts 327°
2026-05-06 12:01 51.30493 51.37864 35841 ft 496 kts 326°
2026-05-06 12:02 51.36238 51.31760 35847 ft 494 kts 326°
2026-05-06 12:02 51.41952 51.25645 35837 ft 493 kts 326°
2026-05-06 12:03 51.47657 51.19557 35853 ft 492 kts 326°
2026-05-06 12:03 51.53333 51.13559 35853 ft 492 kts 326°
2026-05-06 12:04 51.59044 51.07506 35856 ft 492 kts 326°
2026-05-06 12:04 51.64793 51.01532 35854 ft 492 kts 331°
2026-05-06 12:05 51.71044 50.97025 35864 ft 493 kts 341°
2026-05-06 12:05 51.77660 50.94128 35868 ft 493 kts 346°
2026-05-06 12:06 51.84317 50.91395 35865 ft 493 kts 345°
2026-05-06 12:06 51.90933 50.88425 35857 ft 493 kts 340°
2026-05-06 12:07 51.97036 50.83429 35874 ft 492 kts 326°
2026-05-06 12:07 52.02333 50.76447 35878 ft 491 kts 318°
2026-05-06 12:08 52.07428 50.69070 35863 ft 491 kts 318°
2026-05-06 12:08 52.12544 50.61722 35872 ft 490 kts 318°
2026-05-06 12:09 52.17678 50.54413 35870 ft 490 kts 318°
2026-05-06 12:09 52.22807 50.47111 35873 ft 489 kts 318°
2026-05-06 12:10 52.27920 50.39803 35873 ft 488 kts 318°
2026-05-06 12:10 52.33020 50.32488 35874 ft 487 kts 318°
2026-05-06 12:11 52.38106 50.25165 35872 ft 487 kts 318°
2026-05-06 12:11 52.43192 50.17824 35876 ft 487 kts 318°
2026-05-06 12:12 52.48236 50.10517 35880 ft 487 kts 318°
2026-05-06 12:12 52.53333 50.03068 35878 ft 487 kts 315°
2026-05-06 12:13 52.57696 49.94682 35884 ft 486 kts 304°
2026-05-06 12:13 52.61125 49.85139 35890 ft 484 kts 297°
2026-05-06 12:14 52.64276 49.75353 35879 ft 484 kts 297°
2026-05-06 12:14 52.67441 49.65560 35880 ft 484 kts 297°
2026-05-06 12:15 52.70626 49.55776 35883 ft 485 kts 297°
2026-05-06 12:15 52.73813 49.45982 35878 ft 485 kts 297°
2026-05-06 12:16 52.76991 49.36178 35882 ft 484 kts 297°
2026-05-06 12:16 52.80154 49.26372 35874 ft 483 kts 297°
2026-05-06 12:17 52.83307 49.16555 35878 ft 484 kts 297°
2026-05-06 12:17 52.86453 49.06722 35878 ft 483 kts 297°
2026-05-06 12:18 52.89588 48.96883 35871 ft 483 kts 297°
2026-05-06 12:18 52.92719 48.87025 35875 ft 483 kts 297°
2026-05-06 12:19 52.95837 48.77157 35878 ft 483 kts 297°
2026-05-06 12:19 52.98944 48.67274 35873 ft 483 kts 297°
2026-05-06 12:20 53.02046 48.57371 35878 ft 483 kts 297°
2026-05-06 12:20 53.05139 48.47456 35879 ft 484 kts 297°
2026-05-06 12:21 53.08226 48.37525 35885 ft 484 kts 297°
2026-05-06 12:21 53.11874 48.28127 35878 ft 484 kts 308°
2026-05-06 12:22 53.16461 48.19919 35891 ft 484 kts 316°
2026-05-06 12:22 53.21340 48.12268 35879 ft 485 kts 316°
2026-05-06 12:23 53.26273 48.04481 35879 ft 485 kts 315°
2026-05-06 12:23 53.31107 47.96734 35880 ft 485 kts 315°
2026-05-06 12:24 53.35957 47.88908 35879 ft 484 kts 315°
2026-05-06 12:24 53.40803 47.81066 35876 ft 484 kts 315°
2026-05-06 12:25 53.45643 47.73213 35883 ft 484 kts 315°
2026-05-06 12:25 53.50476 47.65350 35879 ft 484 kts 315°
2026-05-06 12:26 53.55308 47.57471 35878 ft 484 kts 315°
2026-05-06 12:26 53.60138 47.49570 35880 ft 484 kts 315°
2026-05-06 12:27 53.64961 47.41650 35876 ft 484 kts 315°
2026-05-06 12:27 53.69781 47.33708 35876 ft 485 kts 315°
2026-05-06 12:28 53.74599 47.25744 35876 ft 485 kts 315°
2026-05-06 12:28 53.79418 47.17749 35873 ft 485 kts 314°
2026-05-06 12:29 53.84223 47.09732 35872 ft 485 kts 314°
2026-05-06 12:29 53.89024 47.01688 35878 ft 485 kts 314°
2026-05-06 12:30 53.93816 46.93635 35875 ft 485 kts 314°
2026-05-06 12:30 53.98601 46.85567 35878 ft 484 kts 314°
2026-05-06 12:31 54.03376 46.77491 35876 ft 484 kts 314°
2026-05-06 12:31 54.08154 46.69398 35874 ft 484 kts 314°
2026-05-06 12:32 54.12928 46.61286 35876 ft 484 kts 314°
2026-05-06 12:32 54.17661 46.53215 35874 ft 484 kts 314°
2026-05-06 12:33 54.22419 46.45072 35874 ft 484 kts 314°
2026-05-06 12:33 54.27176 46.36900 35867 ft 485 kts 314°
2026-05-06 12:34 54.31925 46.28717 35873 ft 484 kts 314°
2026-05-06 12:34 54.36664 46.20517 35869 ft 484 kts 314°
2026-05-06 12:35 54.40602 46.13688 35867 ft 484 kts 313°
2026-05-06 12:35 54.45332 46.05450 35860 ft 484 kts 313°
2026-05-06 12:36 54.50048 45.97196 35871 ft 484 kts 313°
2026-05-06 12:36 54.54753 45.88930 35854 ft 483 kts 313°
2026-05-06 12:37 54.59444 45.80663 35854 ft 482 kts 313°
2026-05-06 12:37 54.64123 45.72388 35853 ft 482 kts 313°
2026-05-06 12:38 54.68793 45.64100 35864 ft 481 kts 313°
2026-05-06 12:38 54.73462 45.55796 35858 ft 481 kts 313°
2026-05-06 12:39 54.78589 45.48319 35842 ft 483 kts 323°
2026-05-06 12:39 54.84133 45.41718 35850 ft 484 kts 324°
2026-05-06 12:40 54.89681 45.35105 35841 ft 484 kts 323°
2026-05-06 12:40 54.95205 45.28419 35842 ft 484 kts 323°
2026-05-06 12:41 55.00721 45.21686 35842 ft 484 kts 323°
2026-05-06 12:41 55.06227 45.14941 35834 ft 484 kts 323°
2026-05-06 12:42 55.11689 45.08231 35832 ft 483 kts 323°
2026-05-06 12:42 55.17176 45.01468 35814 ft 482 kts 323°
2026-05-06 12:43 55.22650 44.94699 35831 ft 481 kts 323°
2026-05-06 12:43 55.28076 44.87855 35809 ft 479 kts 318°
2026-05-06 12:44 55.32499 44.79231 35830 ft 475 kts 303°
2026-05-06 12:44 55.35581 44.69041 35823 ft 473 kts 293°
2026-05-06 12:45 55.38312 44.58533 35823 ft 472 kts 293°
2026-05-06 12:46 55.42449 44.42806 35815 ft 472 kts 294°
2026-05-06 12:46 55.45224 44.32339 35820 ft 472 kts 294°
2026-05-06 12:47 55.47993 44.21860 35835 ft 471 kts 293°
2026-05-06 12:47 55.50746 44.11380 35816 ft 471 kts 293°
2026-05-06 12:48 55.53487 44.00894 35815 ft 470 kts 293°
2026-05-06 12:48 55.56219 43.90395 35811 ft 470 kts 293°
2026-05-06 12:49 55.58944 43.79882 35809 ft 471 kts 294°
2026-05-06 12:49 55.62074 43.69710 35820 ft 471 kts 298°
2026-05-06 12:50 55.65363 43.59774 35808 ft 470 kts 298°
2026-05-06 12:50 55.68641 43.49757 35808 ft 469 kts 298°
2026-05-06 12:51 55.71886 43.39724 35803 ft 469 kts 298°
2026-05-06 12:51 55.75116 43.29687 35804 ft 468 kts 298°
2026-05-06 12:52 55.78337 43.19646 35811 ft 467 kts 297°
2026-05-06 12:52 55.81828 43.09917 35808 ft 467 kts 303°
2026-05-06 12:53 55.85586 43.00508 35808 ft 466 kts 303°
2026-05-06 12:53 55.89328 42.91080 35810 ft 466 kts 303°
2026-05-06 12:54 55.93041 42.81614 35806 ft 466 kts 303°
2026-05-06 12:54 55.96745 42.72110 35803 ft 466 kts 302°
2026-05-06 12:55 56.00444 42.62590 35807 ft 467 kts 302°
2026-05-06 12:55 56.04140 42.53046 35810 ft 467 kts 302°
2026-05-06 12:56 56.07725 42.43374 35807 ft 466 kts 301°
2026-05-06 12:56 56.11255 42.33627 35818 ft 466 kts 301°
2026-05-06 12:57 56.14789 42.23895 35803 ft 465 kts 301°
2026-05-06 12:57 56.18315 42.14183 35809 ft 464 kts 301°
2026-05-06 12:58 56.22060 42.04749 35818 ft 464 kts 305°
2026-05-06 12:58 56.25991 41.95643 35830 ft 464 kts 305°
2026-05-06 12:59 56.29941 41.86468 35824 ft 463 kts 305°
2026-05-06 12:59 56.33859 41.77265 35823 ft 462 kts 304°
2026-05-06 13:00 56.37756 41.68048 35828 ft 462 kts 304°
2026-05-06 13:00 56.41643 41.58816 35830 ft 461 kts 304°
2026-05-06 13:01 56.45523 41.49575 35842 ft 462 kts 304°
2026-05-06 13:01 56.49397 41.40309 35831 ft 462 kts 304°
2026-05-06 13:02 56.53261 41.31029 35834 ft 461 kts 304°
2026-05-06 13:02 56.57121 41.21731 35825 ft 461 kts 304°
2026-05-06 13:03 56.60719 41.12145 35825 ft 458 kts 296°
2026-05-06 13:03 56.63357 41.01676 35831 ft 454 kts 287°
2026-05-06 13:04 56.65244 40.90787 35819 ft 450 kts 285°
2026-05-06 13:04 56.67061 40.79927 35824 ft 448 kts 285°
2026-05-06 13:05 56.68884 40.69112 35827 ft 447 kts 286°
2026-05-06 13:05 56.70711 40.58315 35830 ft 446 kts 286°
2026-05-06 13:06 56.72520 40.47585 35845 ft 447 kts 286°
2026-05-06 13:06 56.74331 40.36768 35833 ft 447 kts 286°
2026-05-06 13:07 56.76134 40.25929 35811 ft 447 kts 286°
2026-05-06 13:07 56.77914 40.15166 35821 ft 439 kts 286°
2026-05-06 13:08 56.79658 40.04552 35830 ft 435 kts 286°
2026-05-06 13:08 56.81386 39.93983 35850 ft 434 kts 286°
2026-05-06 13:09 56.83105 39.83420 35842 ft 434 kts 286°
2026-05-06 13:09 56.84820 39.72860 35840 ft 434 kts 286°
2026-05-06 13:10 56.86530 39.62282 35838 ft 434 kts 286°
2026-05-06 13:10 56.88229 39.51695 35843 ft 435 kts 286°
2026-05-06 13:11 56.89924 39.41068 35843 ft 435 kts 286°
2026-05-06 13:11 56.91613 39.30415 35851 ft 436 kts 286°
2026-05-06 13:12 56.93292 39.19751 35836 ft 436 kts 286°
2026-05-06 13:12 56.94958 39.09103 35839 ft 436 kts 285°
2026-05-06 13:13 56.96620 38.98419 35853 ft 436 kts 285°
2026-05-06 13:13 56.98270 38.87740 35851 ft 435 kts 285°
2026-05-06 13:14 56.99911 38.77057 35837 ft 435 kts 285°
2026-05-06 13:14 57.01530 38.66444 35834 ft 435 kts 285°
2026-05-06 13:15 57.03163 38.55672 35852 ft 435 kts 285°
2026-05-06 13:15 57.04776 38.44954 35849 ft 436 kts 285°
2026-05-06 13:16 57.06384 38.34211 35856 ft 436 kts 285°
2026-05-06 13:16 57.07983 38.23451 35856 ft 437 kts 285°
2026-05-06 13:17 57.09564 38.12745 35863 ft 437 kts 284°
2026-05-06 13:17 57.11145 38.01962 35859 ft 436 kts 284°
2026-05-06 13:18 57.12716 37.91176 35864 ft 436 kts 284°
2026-05-06 13:18 57.14274 37.80409 35868 ft 435 kts 284°
2026-05-06 13:19 57.15824 37.69640 35862 ft 435 kts 284°
2026-05-06 13:19 57.17655 37.59030 35866 ft 435 kts 290°
2026-05-06 13:20 57.19902 37.48678 35858 ft 435 kts 290°
2026-05-06 13:20 57.22139 37.38309 35869 ft 435 kts 290°
2026-05-06 13:21 57.24355 37.27913 35870 ft 435 kts 290°
2026-05-06 13:21 57.26556 37.17502 35877 ft 435 kts 290°
2026-05-06 13:22 57.28751 37.07060 35879 ft 436 kts 290°
2026-05-06 13:22 57.30936 36.96613 35895 ft 436 kts 289°
2026-05-06 13:23 57.33111 36.86157 35886 ft 435 kts 289°
2026-05-06 13:23 57.35257 36.75789 35886 ft 434 kts 289°
2026-05-06 13:24 57.37404 36.65366 35882 ft 433 kts 289°
2026-05-06 13:24 57.39541 36.54936 35892 ft 433 kts 289°
2026-05-06 13:25 57.41327 36.46173 35918 ft 434 kts 289°
2026-05-06 13:25 57.43439 36.35768 35911 ft 434 kts 289°
2026-05-06 13:26 57.45558 36.25269 35904 ft 434 kts 289°
2026-05-06 13:26 57.47670 36.14760 35904 ft 434 kts 289°
2026-05-06 13:27 57.49775 36.04247 35906 ft 434 kts 289°
2026-05-06 13:27 57.51890 35.93740 35908 ft 434 kts 289°
2026-05-06 13:28 57.53995 35.83240 35915 ft 433 kts 288°
2026-05-06 13:28 57.56086 35.72740 35912 ft 432 kts 288°
2026-05-06 13:29 57.58163 35.62257 35917 ft 431 kts 288°
2026-05-06 13:29 57.60226 35.51789 35919 ft 430 kts 288°
2026-05-06 13:30 57.62339 35.41363 35919 ft 430 kts 289°
2026-05-06 13:30 57.64480 35.30955 35938 ft 429 kts 288°
2026-05-06 13:31 57.66602 35.20533 35937 ft 429 kts 288°
2026-05-06 13:31 57.68710 35.10106 35924 ft 429 kts 288°
2026-05-06 13:32 57.71129 34.99903 35943 ft 432 kts 296°
2026-05-06 13:32 57.74422 34.90465 35931 ft 436 kts 304°
2026-05-06 13:33 57.78388 34.81842 35973 ft 438 kts 307°
2026-05-06 13:33 57.82441 34.73314 35942 ft 438 kts 307°
2026-05-06 13:34 57.86461 34.64746 35938 ft 437 kts 306°
2026-05-06 13:34 57.90450 34.56154 35942 ft 436 kts 306°
2026-05-06 13:35 57.94425 34.47544 35948 ft 435 kts 306°
2026-05-06 13:35 57.98392 34.38924 35973 ft 435 kts 306°
2026-05-06 13:36 58.02350 34.30293 35958 ft 435 kts 306°
2026-05-06 13:36 58.06276 34.21703 35948 ft 435 kts 306°
2026-05-06 13:37 58.10217 34.13053 35953 ft 434 kts 306°
2026-05-06 13:37 58.14153 34.04387 35958 ft 434 kts 306°
2026-05-06 13:38 58.18079 33.95709 35987 ft 434 kts 305°
2026-05-06 13:38 58.22001 33.87007 35965 ft 434 kts 305°
2026-05-06 13:39 58.25919 33.78283 35965 ft 434 kts 305°
2026-05-06 13:39 58.29826 33.69549 35964 ft 434 kts 305°
2026-05-06 13:40 58.33727 33.60796 35963 ft 433 kts 305°
2026-05-06 13:40 58.37616 33.52038 35942 ft 431 kts 305°
2026-05-06 13:40 58.39545 33.47684 35824 ft 429 kts 304°
2026-05-06 13:41 58.41463 33.43344 35532 ft 428 kts 304°
2026-05-06 13:41 58.43382 33.38992 35218 ft 428 kts 304°
2026-05-06 13:41 58.45295 33.34646 34907 ft 428 kts 304°
2026-05-06 13:41 58.47207 33.30294 34590 ft 427 kts 304°
2026-05-06 13:42 58.49114 33.25948 34298 ft 426 kts 303°
2026-05-06 13:42 58.51017 33.21606 33999 ft 425 kts 303°
2026-05-06 13:42 58.52912 33.17270 33623 ft 425 kts 303°
2026-05-06 13:42 58.54781 33.12980 33126 ft 427 kts 303°
2026-05-06 13:43 58.56685 33.08601 32611 ft 429 kts 303°
2026-05-06 13:43 58.58600 33.04190 32128 ft 431 kts 303°
2026-05-06 13:43 58.60516 32.99773 31685 ft 431 kts 303°
2026-05-06 13:43 58.62435 32.95339 31202 ft 432 kts 303°
2026-05-06 13:44 58.64357 32.90888 30703 ft 434 kts 303°
2026-05-06 13:44 58.66279 32.86434 30157 ft 432 kts 303°
2026-05-06 13:44 58.68191 32.81996 29396 ft 429 kts 303°
2026-05-06 13:44 58.70077 32.77613 28699 ft 423 kts 303°
2026-05-06 13:45 58.71940 32.73276 28037 ft 418 kts 303°
2026-05-06 13:45 58.75599 32.64720 26741 ft 410 kts 303°
2026-05-06 13:45 58.77398 32.60500 26094 ft 406 kts 303°
2026-05-06 13:46 58.79181 32.56308 25481 ft 403 kts 302°
2026-05-06 13:46 58.80948 32.52147 24880 ft 400 kts 302°
2026-05-06 13:46 58.82703 32.48005 24274 ft 397 kts 302°
2026-05-06 13:46 58.84446 32.43886 23658 ft 395 kts 302°
2026-05-06 13:47 58.86178 32.39785 22961 ft 393 kts 302°
2026-05-06 13:47 58.87899 32.35706 22309 ft 390 kts 302°
2026-05-06 13:47 58.89603 32.31660 21720 ft 386 kts 303°
2026-05-06 13:47 58.91289 32.27651 21124 ft 382 kts 303°
2026-05-06 13:48 58.92957 32.23675 20528 ft 379 kts 303°
2026-05-06 13:48 58.94609 32.19730 19982 ft 376 kts 303°
2026-05-06 13:48 58.96247 32.15813 19420 ft 373 kts 303°
2026-05-06 13:48 58.97874 32.11918 18885 ft 370 kts 303°
2026-05-06 13:49 58.99488 32.08041 18317 ft 369 kts 303°
2026-05-06 13:49 59.01094 32.04182 17673 ft 366 kts 303°
2026-05-06 13:49 59.02687 32.00349 17081 ft 363 kts 303°
2026-05-06 13:49 59.04264 31.96546 16526 ft 360 kts 303°
2026-05-06 13:50 59.05828 31.92768 15953 ft 357 kts 303°
2026-05-06 13:50 59.07379 31.89020 15422 ft 355 kts 303°
2026-05-06 13:50 59.08918 31.85290 14884 ft 352 kts 303°
2026-05-06 13:50 59.10448 31.81583 14356 ft 351 kts 304°
2026-05-06 13:51 59.12083 31.78051 13827 ft 352 kts 309°
2026-05-06 13:51 59.13847 31.74745 13252 ft 352 kts 311°
2026-05-06 13:51 59.15631 31.71501 12695 ft 349 kts 311°
2026-05-06 13:51 59.17393 31.68266 12163 ft 347 kts 311°
2026-05-06 13:52 59.19131 31.65027 11664 ft 344 kts 311°
2026-05-06 13:52 59.20849 31.61789 11141 ft 342 kts 311°
2026-05-06 13:52 59.22539 31.58585 10917 ft 332 kts 311°
2026-05-06 13:52 59.24162 31.55498 10763 ft 321 kts 311°
2026-05-06 13:53 59.25730 31.52506 10624 ft 310 kts 311°
2026-05-06 13:53 59.27220 31.49663 10479 ft 289 kts 311°
2026-05-06 13:53 59.28606 31.47018 10355 ft 269 kts 311°
2026-05-06 13:53 59.29918 31.44503 10280 ft 259 kts 311°
2026-05-06 13:54 59.31180 31.42074 10167 ft 250 kts 311°
2026-05-06 13:54 59.32378 31.39769 10061 ft 240 kts 311°
2026-05-06 13:54 59.33567 31.37476 9918 ft 238 kts 311°
2026-05-06 13:54 59.34727 31.35231 9748 ft 237 kts 311°
2026-05-06 13:55 59.35914 31.32934 9445 ft 235 kts 311°
2026-05-06 13:55 59.37066 31.30709 9217 ft 230 kts 311°
2026-05-06 13:55 59.38196 31.28522 8857 ft 229 kts 311°
2026-05-06 13:55 59.39345 31.26293 8380 ft 233 kts 312°
2026-05-06 13:56 59.40495 31.24064 8047 ft 232 kts 312°
2026-05-06 13:56 59.41638 31.21847 7727 ft 230 kts 313°
2026-05-06 13:56 59.42771 31.19653 7405 ft 228 kts 313°
2026-05-06 13:56 59.43894 31.17469 7097 ft 226 kts 313°
2026-05-06 13:57 59.45007 31.15301 6800 ft 224 kts 313°
2026-05-06 13:57 59.46099 31.13174 6506 ft 223 kts 313°
2026-05-06 13:57 59.47199 31.11035 6181 ft 222 kts 313°
2026-05-06 13:57 59.48290 31.08908 5876 ft 220 kts 313°
2026-05-06 13:58 59.49373 31.06790 5573 ft 219 kts 314°
2026-05-06 13:58 59.50451 31.04682 5296 ft 218 kts 314°
2026-05-06 13:58 59.51525 31.02585 5020 ft 216 kts 314°
2026-05-06 13:58 59.52525 31.00450 4887 ft 209 kts 310°
2026-05-06 13:59 59.53484 30.98254 4784 ft 216 kts 310°
2026-05-06 13:59 59.54482 30.95950 4682 ft 225 kts 310°
2026-05-06 13:59 59.55496 30.93610 4524 ft 224 kts 310°
2026-05-06 13:59 59.56497 30.91302 4405 ft 219 kts 310°
2026-05-06 14:00 59.57479 30.89046 4297 ft 214 kts 310°
2026-05-06 14:00 59.58444 30.86820 4185 ft 212 kts 310°
2026-05-06 14:00 59.59410 30.84601 4082 ft 215 kts 310°
2026-05-06 14:00 59.60390 30.82345 3963 ft 217 kts 310°
2026-05-06 14:01 59.61375 30.80082 3866 ft 218 kts 310°
2026-05-06 14:01 59.62366 30.77807 3737 ft 217 kts 310°
2026-05-06 14:01 59.63345 30.75546 3624 ft 216 kts 310°
2026-05-06 14:01 59.64323 30.73281 3504 ft 217 kts 310°
2026-05-06 14:02 59.65303 30.71013 3385 ft 217 kts 310°
2026-05-06 14:02 59.66285 30.68750 3269 ft 216 kts 310°
2026-05-06 14:02 59.67352 30.66726 3144 ft 209 kts 323°
2026-05-06 14:02 59.68532 30.65131 3021 ft 202 kts 325°
2026-05-06 14:03 59.69677 30.63601 3000 ft 198 kts 325°
2026-05-06 14:03 59.70812 30.62060 2862 ft 195 kts 324°
2026-05-06 14:03 59.71915 30.60550 2759 ft 190 kts 324°
2026-05-06 14:03 59.72980 30.59074 2634 ft 188 kts 324°
2026-05-06 14:04 59.74069 30.57563 2554 ft 187 kts 323°
2026-05-06 14:04 59.74872 30.55771 2388 ft 170 kts 291°
2026-05-06 14:04 59.75182 30.53598 2322 ft 165 kts 289°
2026-05-06 14:04 59.75552 30.51433 2201 ft 165 kts 289°
2026-05-06 14:05 59.75895 30.49290 2103 ft 161 kts 289°
2026-05-06 14:05 59.76215 30.47175 2065 ft 160 kts 288°
2026-05-06 14:05 59.76528 30.45067 1848 ft 156 kts 288°
2026-05-06 14:05 59.76817 30.43108 1648 ft 140 kts 289°
2026-05-06 14:06 59.77085 30.41329 1500 ft 134 kts 289°
2026-05-06 14:06 59.77358 30.39509 1293 ft 139 kts 287°
2026-05-06 14:06 59.77633 30.37659 1077 ft 140 kts 288°
2026-05-06 14:06 59.77908 30.35807 891 ft 141 kts 288°
2026-05-06 14:07 59.78189 30.33927 717 ft 143 kts 288°
2026-05-06 14:07 59.78471 30.32027 516 ft 143 kts 287°
2026-05-06 14:07 59.78748 30.30156 307 ft 139 kts 287°
2026-05-06 14:07 59.79022 30.28316 142 ft 139 kts 290°
2026-05-06 14:08 59.79305 30.26553 88 ft 122 kts 285°
2026-05-06 14:08 59.79484 30.25271 89 ft 79 kts 286°
2026-05-06 14:08 59.79631 30.24278 88 ft 67 kts 286°
2026-05-06 14:08 59.79724 30.23641 88 ft 35 kts 287°
2026-05-06 14:09 59.79777 30.23353 87 ft 32 kts 297°
2026-05-06 14:09 59.79915 30.23049 88 ft 19 kts 327°
2026-05-06 14:09 59.79971 30.23099 87 ft 9 kts 80°
2026-05-06 14:09 59.79960 30.23224 87 ft 9 kts 105°
2026-05-06 14:10 59.79943 30.23348 86 ft 10 kts 105°
2026-05-06 14:10 59.79922 30.23496 84 ft 13 kts 107°
2026-05-06 14:10 59.79888 30.23716 85 ft 21 kts 106°
2026-05-06 14:10 59.79848 30.23990 84 ft 21 kts 106°
2026-05-06 14:11 59.79808 30.24260 88 ft 21 kts 106°
2026-05-06 14:11 59.79768 30.24534 89 ft 21 kts 107°
2026-05-06 14:11 59.79726 30.24807 90 ft 20 kts 106°
2026-05-06 14:11 59.79686 30.25076 87 ft 20 kts 106°
2026-05-06 14:12 59.79647 30.25345 88 ft 20 kts 106°
2026-05-06 14:12 59.79608 30.25614 90 ft 20 kts 106°
2026-05-06 14:12 59.79568 30.25874 91 ft 16 kts 107°
2026-05-06 14:12 59.79536 30.26088 93 ft 16 kts 106°
2026-05-06 14:13 59.79528 30.26285 93 ft 14 kts 51°
2026-05-06 14:13 59.79587 30.26341 91 ft 14 kts 18°
2026-05-06 14:13 59.79681 30.26399 91 ft 14 kts 17°
2026-05-06 14:13 59.79775 30.26455 91 ft 14 kts 16°
2026-05-06 14:14 59.79870 30.26509 90 ft 14 kts 16°
2026-05-06 14:14 59.79964 30.26564 89 ft 14 kts 16°
2026-05-06 14:14 59.80059 30.26620 89 ft 14 kts 17°
2026-05-06 14:14 59.80151 30.26675 89 ft 11 kts 17°
2026-05-06 14:15 59.80192 30.26737 88 ft 6 kts 64°
2026-05-06 14:15 59.80196 30.26812 89 ft 5 kts 95°
2026-05-06 14:15 59.80187 30.26884 91 ft 5 kts 105°
2026-05-06 14:15 59.80185 30.26897 91 ft 0 kts 106°